Regional Weather Roundup
Issued by NWS State College, PA

Home | Current Version | Previous Version | Graphics & Text | Print | Product List | Glossary Off
Versions: 1 2 3 4 5 6 7 8 9 10 11 12 13 14 15 16 17 18 19 20 21 22 23 24 25 26 27 28 29 30 31 32 33 34 35 36 37 38 39 40 41 42 43 44 45 46 47 48 49 50

000
ASUS41 KCTP 301303
RWRCTP

REGIONAL WEATHER ROUNDUP
NATIONAL WEATHER SERVICE STATE COLLEGE PA
900 AM EDT SAT AUG 30 2014

Note: "fair" indicates few or no clouds below 12,000 feet with no
significant weather and/or obstructions to visibility.

* = STATION THAT DOES NOT REPORT PRECIPITATION /E.G. RAIN...SNOW...ETC/
    THUNDER OR FOG.

PAZ002>004-007>009-013>016-020>023-029>032-301400-
WESTERN PENNSYLVANIA

CITY           SKY/WX    TMP DP  RH WIND       PRES   REMARKS
ERIE           MOSUNNY   71  58  63 S16G23    30.05F
MEADVILLE      CLOUDY    67  59  75 VRB6      30.12S
FRANKLIN*      MOSUNNY   66  59  77 S7        30.15F
NEW CASTLE     FAIR      67  62  84 CALM      30.13S
BEAVER COUNTY  NOT AVBL
BUTLER*        MOSUNNY   68  61  77 S5        30.16S
PITTSBURGH INT MOSUNNY   69  63  81 S3        30.13S
PITTSBURGH     MOSUNNY   69  62  78 S8        30.14R
INDIANA*       CLOUDY    72  63  73 S7        30.20S
LATROBE        SUNNY     70  66  88 CALM      30.16S
WASHINGTON CO* MOSUNNY   72  66  83 S5        30.15R
$$

PAZ004>006-010>012-017>019-024>028-033>037-041-042-045-046-049>053-301400-
CENTRAL PENNSYLVANIA

CITY           SKY/WX    TMP DP  RH WIND       PRES   REMARKS
BRADFORD       SUNNY     64  56  75 SE7       30.18S
DUBOIS         SUNNY     65  58  78 SE7       30.18R
CLEARFIELD     SUNNY     62  56  80 NE3       30.20F
JOHNSTOWN      MOSUNNY   66  59  78 S8        30.22S
ALTOONA        MOSUNNY   66  57  72 CALM      30.22F
STATE COLLEGE  SUNNY     64  57  77 CALM      30.22S
WILLIAMSPORT   CLOUDY    65  58  78 E10       30.20F
SELINSGROVE    CLOUDY    63  60  90 CALM      30.23S
FT INDIANTOWN  CLOUDY    64  63  99 E3        30.25F
CAPITAL CITY   CLOUDY    65  61  87 E5        30.24S
HARRISBURG     CLOUDY    67  61  81 SE3       30.23S
YORK           CLOUDY    69  64  84 VRB3      30.23S
$$

PAZ038>040-043-044-047-048-054-055-060>062-067>071-301400-
EASTERN PENNSYLVANIA

CITY           SKY/WX    TMP DP  RH WIND       PRES   REMARKS
SCRANTON       PTSUNNY   66  58  75 VRB3      30.24F
MOUNT POCONO   PTSUNNY   61  56  83 S8        30.28F
ALLENTOWN      CLOUDY    64  57  78 E3        30.27S
QUAKERTOWN*    CLOUDY    63  59  88 MISG      30.28S
READING        CLOUDY    67  60  78 CALM      30.25F
LANCASTER      CLOUDY    64  61  90 E3        30.25S
COATESVILLE    CLOUDY    63  63 100 E5        30.27S
POTTSTOWN      CLOUDY    63  59  87 VRB3      30.28F
BLUE BELL      CLOUDY    66  61  82 CALM      30.26S
DOYLESTOWN     PTSUNNY   64  59  83 SE3       30.27S
WILLOW GROVE   NOT AVBL
NORTH PHILA    MOSUNNY   68  58  70 SE3       30.28F
PHILADELPHIA   MOSUNNY   69  60  73 NE5       30.27S
$$


USA.gov is the U.S. government's official web portal to all federal, state and local government web resources and services.